sat.trackr.live / text

‹ back to catalog

STARLINK-35899

NORAD 66497 · 2025-263N

PAYLOAD ACTIVE UNKNOWN

§ Identity

Operator
Country
US
Launch date
2025-11-15
Launch site
AFETR
Launch vehicle
Mass (kg)
RCS (m²)

Purposes: comms

External: N2YO · Heavens-Above · Gunter

§ Orbital elements

Epoch: 2026-05-25T01:47:06.811296Z

Period
94.27 min
Inclination
42.9981°
Eccentricity
0.0000437
Mean motion
15.27575582 rev/d
Perigee alt
482.8 km
Apogee alt
483.4 km
Semi-major
6,861.2 km
B*
6.3249e-4
RAAN
279.0805°
Arg perigee
348.2153°
Mean anomaly
11.8688°
Rev number
3,058

§ Raw data

STARLINK-358991 66497U 25263N   26145.07438439  .00017181  00000+0  63249-3 0  99902 66497  42.9981 279.0805 0000437 348.2153  11.8688 15.27575582 30583

JSON: /api/v1/satellites/66497 · /tle

For live sub-satellite position, see the globe view (requires WebGL).

§ Visibility from observer

Set your observer location to see the next 7 days of passes ≥ 10°. The values pass through the URL so the page stays shareable.

No JS? Fill the form by hand. The geolocation button needs JavaScript.